DAL2588 KDTW-KJFK

Flight info

Callsign DAL2588
Flight time 1h 29m
Altitude 35000
Route PAVYL3 MRDOC HOXIE Q476 WLKES PUCKY1
Aircraft A320/M-SDE3FGHIRWY/LB1

Departure

Time 2026-05-05 13:21
Airport Detroit Metropolitan Wayne County Airport (KDTW)

Arrival

Time 2026-05-05 14:51
Airport John F. Kennedy International Airport (KJFK)
Time Latitude Longitude Altitude Speed Heading
2026-05-05 12:58 42.21060 -83.35571 640 ft 0 kts 296°
2026-05-05 13:12 42.21053 -83.35555 640 ft 2 kts 306°
2026-05-05 13:12 42.21044 -83.35540 639 ft 2 kts 314°
2026-05-05 13:12 42.21033 -83.35526 639 ft 2 kts 322°
2026-05-05 13:13 42.21021 -83.35515 639 ft 2 kts 332°
2026-05-05 13:13 42.21008 -83.35507 639 ft 0 kts 338°
2026-05-05 13:13 42.21007 -83.35506 639 ft 0 kts 338°
2026-05-05 13:15 42.21008 -83.35506 639 ft 0 kts 338°
2026-05-05 13:15 42.21035 -83.35503 639 ft 6 kts 19°
2026-05-05 13:15 42.21078 -83.35478 640 ft 6 kts 25°
2026-05-05 13:16 42.21125 -83.35445 641 ft 8 kts 29°
2026-05-05 13:16 42.21204 -83.35386 640 ft 15 kts 29°
2026-05-05 13:16 42.21303 -83.35314 639 ft 16 kts 28°
2026-05-05 13:16 42.21407 -83.35242 639 ft 17 kts 27°
2026-05-05 13:17 42.21487 -83.35143 639 ft 15 kts 32°
2026-05-05 13:17 42.21575 -83.35059 639 ft 16 kts 44°
2026-05-05 13:17 42.21657 -83.34955 639 ft 16 kts 43°
2026-05-05 13:17 42.21742 -83.34846 639 ft 16 kts 44°
2026-05-05 13:18 42.21825 -83.34734 639 ft 17 kts 56°
2026-05-05 13:18 42.21840 -83.34586 639 ft 16 kts 86°
2026-05-05 13:18 42.21901 -83.34470 639 ft 16 kts 29°
2026-05-05 13:18 42.22001 -83.34397 639 ft 17 kts 28°
2026-05-05 13:19 42.22111 -83.34316 639 ft 18 kts 29°
2026-05-05 13:19 42.22224 -83.34232 639 ft 18 kts 28°
2026-05-05 13:19 42.22339 -83.34149 638 ft 19 kts 29°
2026-05-05 13:19 42.22458 -83.34055 636 ft 20 kts 30°
2026-05-05 13:20 42.22584 -83.33965 635 ft 20 kts 26°
2026-05-05 13:20 42.22709 -83.33875 635 ft 20 kts 29°
2026-05-05 13:20 42.22832 -83.33781 635 ft 20 kts 35°
2026-05-05 13:20 42.22805 -83.33649 635 ft 19 kts 176°
2026-05-05 13:21 42.22609 -83.33778 635 ft 60 kts 209°
2026-05-05 13:21 42.22045 -83.34193 639 ft 122 kts 208°
2026-05-05 13:21 42.21188 -83.34846 860 ft 149 kts 212°
2026-05-05 13:21 42.20279 -83.35530 1398 ft 152 kts 211°
2026-05-05 13:22 42.19362 -83.36131 2086 ft 147 kts 210°
2026-05-05 13:22 42.18363 -83.36468 2562 ft 156 kts 187°
2026-05-05 13:22 42.17220 -83.36406 2858 ft 172 kts 181°
2026-05-05 13:22 42.15971 -83.36259 3227 ft 184 kts 181°
2026-05-05 13:23 42.14639 -83.36125 3561 ft 199 kts 182°
2026-05-05 13:23 42.13205 -83.36012 3898 ft 215 kts 183°
2026-05-05 13:23 42.11655 -83.35915 4148 ft 238 kts 183°
2026-05-05 13:23 42.09935 -83.35815 4563 ft 255 kts 184°
2026-05-05 13:24 42.08123 -83.35712 5122 ft 266 kts 184°
2026-05-05 13:24 42.06292 -83.35577 5962 ft 268 kts 179°
2026-05-05 13:24 42.04533 -83.34666 6782 ft 285 kts 149°
2026-05-05 13:24 42.03257 -83.32539 7590 ft 303 kts 118°
2026-05-05 13:25 42.02745 -83.29784 8359 ft 312 kts 104°
2026-05-05 13:25 42.02391 -83.26889 9102 ft 316 kts 104°
2026-05-05 13:25 42.02021 -83.23968 9795 ft 321 kts 105°
2026-05-05 13:25 42.01625 -83.20982 10360 ft 332 kts 103°
2026-05-05 13:26 42.01477 -83.17783 10731 ft 353 kts 90°
2026-05-05 13:26 42.01774 -83.14481 11342 ft 361 kts 81°
2026-05-05 13:26 42.02271 -83.11156 12026 ft 365 kts 77°
2026-05-05 13:26 42.02945 -83.07873 12673 ft 370 kts 72°
2026-05-05 13:27 42.03777 -83.04586 13331 ft 373 kts 70°
2026-05-05 13:27 42.04641 -83.01297 13977 ft 377 kts 70°
2026-05-05 13:27 42.05517 -82.97943 14608 ft 381 kts 70°
2026-05-05 13:27 42.06392 -82.94553 15234 ft 384 kts 70°
2026-05-05 13:28 42.07250 -82.91186 15832 ft 388 kts 70°
2026-05-05 13:28 42.08126 -82.87723 16403 ft 392 kts 70°
2026-05-05 13:28 42.09005 -82.84236 16980 ft 396 kts 70°
2026-05-05 13:28 42.09890 -82.80713 17540 ft 399 kts 70°
2026-05-05 13:29 42.10778 -82.77165 18074 ft 402 kts 70°
2026-05-05 13:29 42.11677 -82.73580 18629 ft 405 kts 70°
2026-05-05 13:29 42.12571 -82.70003 19141 ft 408 kts 70°
2026-05-05 13:29 42.13470 -82.66399 19640 ft 412 kts 71°
2026-05-05 13:30 42.14181 -82.62643 20128 ft 416 kts 80°
2026-05-05 13:30 42.14469 -82.58742 20646 ft 418 kts 89°
2026-05-05 13:30 42.14466 -82.54843 21120 ft 421 kts 92°
2026-05-05 13:30 42.14396 -82.50925 21556 ft 425 kts 92°
2026-05-05 13:31 42.14332 -82.46916 22007 ft 428 kts 92°
2026-05-05 13:31 42.14206 -82.42943 22467 ft 431 kts 95°
2026-05-05 13:31 42.13996 -82.38927 22906 ft 434 kts 96°
2026-05-05 13:31 42.13762 -82.34859 23343 ft 437 kts 96°
2026-05-05 13:32 42.13527 -82.30795 23761 ft 440 kts 96°
2026-05-05 13:32 42.13290 -82.26692 24162 ft 443 kts 96°
2026-05-05 13:32 42.13054 -82.22570 24563 ft 446 kts 96°
2026-05-05 13:32 42.12814 -82.18381 24995 ft 448 kts 96°
2026-05-05 13:33 42.12571 -82.14179 25402 ft 450 kts 96°
2026-05-05 13:33 42.12332 -82.10006 25789 ft 453 kts 96°
2026-05-05 13:33 42.12085 -82.05792 26175 ft 456 kts 96°
2026-05-05 13:33 42.11836 -82.01517 26530 ft 459 kts 96°
2026-05-05 13:34 42.11585 -81.97274 26882 ft 462 kts 96°
2026-05-05 13:34 42.11327 -81.92962 27261 ft 463 kts 96°
2026-05-05 13:34 42.11070 -81.88650 27621 ft 466 kts 96°
2026-05-05 13:34 42.10806 -81.84263 27925 ft 469 kts 96°
2026-05-05 13:35 42.10543 -81.79899 28251 ft 472 kts 96°
2026-05-05 13:35 42.10279 -81.75521 28565 ft 475 kts 96°
2026-05-05 13:35 42.10008 -81.71107 28890 ft 477 kts 96°
2026-05-05 13:35 42.09730 -81.66631 29205 ft 479 kts 96°
2026-05-05 13:36 42.09450 -81.62163 29489 ft 482 kts 96°
2026-05-05 13:36 42.09181 -81.57726 29775 ft 484 kts 96°
2026-05-05 13:36 42.08959 -81.53153 30087 ft 486 kts 95°
2026-05-05 13:36 42.08759 -81.48651 30344 ft 489 kts 94°
2026-05-05 13:37 42.08561 -81.44073 30600 ft 491 kts 94°
2026-05-05 13:37 42.08364 -81.39514 30866 ft 493 kts 94°
2026-05-05 13:37 42.08155 -81.34902 31102 ft 496 kts 95°
2026-05-05 13:37 42.07942 -81.30271 31303 ft 499 kts 95°
2026-05-05 13:38 42.07722 -81.25571 31531 ft 501 kts 95°
2026-05-05 13:38 42.07500 -81.20924 31760 ft 503 kts 95°
2026-05-05 13:38 42.07275 -81.16260 31977 ft 505 kts 95°
2026-05-05 13:38 42.07046 -81.11523 32210 ft 506 kts 95°
2026-05-05 13:39 42.06819 -81.06853 32443 ft 508 kts 95°
2026-05-05 13:39 42.06581 -81.02092 32721 ft 508 kts 95°
2026-05-05 13:39 42.06347 -80.97362 32980 ft 508 kts 95°
2026-05-05 13:39 42.06114 -80.92675 33266 ft 508 kts 95°
2026-05-05 13:40 42.05876 -80.87965 33557 ft 507 kts 95°
2026-05-05 13:40 42.05636 -80.83257 33791 ft 508 kts 95°
2026-05-05 13:40 42.05389 -80.78496 33991 ft 510 kts 95°
2026-05-05 13:40 42.05146 -80.73740 34178 ft 512 kts 95°
2026-05-05 13:41 42.04896 -80.68999 34381 ft 513 kts 95°
2026-05-05 13:41 42.04648 -80.64199 34597 ft 514 kts 95°
2026-05-05 13:41 42.04397 -80.59473 34754 ft 515 kts 95°
2026-05-05 13:41 42.04137 -80.54639 34762 ft 515 kts 95°
2026-05-05 13:42 42.03619 -80.45093 34770 ft 514 kts 94°
2026-05-05 13:42 42.03098 -80.35555 34780 ft 513 kts 95°
2026-05-05 13:43 42.02566 -80.26028 34784 ft 512 kts 95°
2026-05-05 13:43 42.02032 -80.16563 34783 ft 510 kts 95°
2026-05-05 13:44 42.01488 -80.07089 34792 ft 511 kts 95°
2026-05-05 13:44 42.00934 -79.97596 34790 ft 509 kts 95°
2026-05-05 13:45 42.00380 -79.88166 34789 ft 508 kts 95°
2026-05-05 13:45 41.99815 -79.78753 34776 ft 506 kts 95°
2026-05-05 13:46 41.99245 -79.69373 34782 ft 503 kts 95°
2026-05-05 13:46 41.98674 -79.60062 34782 ft 502 kts 95°
2026-05-05 13:47 41.98095 -79.50756 34782 ft 498 kts 95°
2026-05-05 13:47 41.97511 -79.41517 34782 ft 497 kts 95°
2026-05-05 13:48 41.96924 -79.32318 34793 ft 497 kts 96°
2026-05-05 13:48 41.96325 -79.23113 34795 ft 496 kts 95°
2026-05-05 13:49 41.95723 -79.13941 34816 ft 494 kts 95°
2026-05-05 13:49 41.95116 -79.04776 34816 ft 490 kts 95°
2026-05-05 13:50 41.94507 -78.95699 34811 ft 489 kts 95°
2026-05-05 13:50 41.93894 -78.86607 34804 ft 488 kts 95°
2026-05-05 13:51 41.93274 -78.77591 34832 ft 487 kts 95°
2026-05-05 13:51 41.92643 -78.68561 34828 ft 487 kts 95°
2026-05-05 13:52 41.92008 -78.59552 34847 ft 487 kts 95°
2026-05-05 13:52 41.91364 -78.50510 34835 ft 486 kts 95°
2026-05-05 13:53 41.90720 -78.41542 34821 ft 486 kts 95°
2026-05-05 13:53 41.90064 -78.32526 34824 ft 485 kts 96°
2026-05-05 13:54 41.89402 -78.23532 34831 ft 485 kts 96°
2026-05-05 13:54 41.88737 -78.14578 34824 ft 484 kts 96°
2026-05-05 13:55 41.88063 -78.05615 34821 ft 484 kts 96°
2026-05-05 13:55 41.87380 -77.96635 34811 ft 484 kts 96°
2026-05-05 13:56 41.86510 -77.87695 34808 ft 484 kts 102°
2026-05-05 13:56 41.84875 -77.78992 34822 ft 483 kts 109°
2026-05-05 13:57 41.82667 -77.70576 34833 ft 482 kts 111°
2026-05-05 13:57 41.80413 -77.62146 34825 ft 482 kts 111°
2026-05-05 13:58 41.78173 -77.53685 34831 ft 482 kts 111°
2026-05-05 13:58 41.75934 -77.45255 34832 ft 482 kts 111°
2026-05-05 13:59 41.72561 -77.32607 34830 ft 481 kts 112°
2026-05-05 14:00 41.69175 -77.19997 34843 ft 482 kts 111°
2026-05-05 14:00 41.66912 -77.11603 34844 ft 482 kts 111°
2026-05-05 14:01 41.64644 -77.03223 34852 ft 481 kts 111°
2026-05-05 14:01 41.62367 -76.94832 34849 ft 481 kts 111°
2026-05-05 14:02 41.60091 -76.86464 34846 ft 479 kts 111°
2026-05-05 14:02 41.57820 -76.78155 34858 ft 477 kts 111°
2026-05-05 14:03 41.55547 -76.69865 34866 ft 476 kts 111°
2026-05-05 14:03 41.53282 -76.61625 34879 ft 476 kts 111°
2026-05-05 14:04 41.51002 -76.53363 34871 ft 475 kts 111°
2026-05-05 14:04 41.48722 -76.45130 34877 ft 474 kts 111°
2026-05-05 14:05 41.46450 -76.36938 34875 ft 473 kts 111°
2026-05-05 14:05 41.44155 -76.28698 34882 ft 471 kts 112°
2026-05-05 14:06 41.41880 -76.20554 34883 ft 472 kts 112°
2026-05-05 14:06 41.39588 -76.12376 34890 ft 471 kts 112°
2026-05-05 14:07 41.37310 -76.04269 34886 ft 471 kts 112°
2026-05-05 14:07 41.35016 -75.96135 34886 ft 469 kts 112°
2026-05-05 14:08 41.32721 -75.88021 34893 ft 469 kts 112°
2026-05-05 14:08 41.30429 -75.79939 34894 ft 468 kts 112°
2026-05-05 14:09 41.28136 -75.71890 34899 ft 468 kts 112°
2026-05-05 14:09 41.25623 -75.63896 34903 ft 467 kts 115°
2026-05-05 14:10 41.22978 -75.56007 34916 ft 467 kts 115°
2026-05-05 14:10 41.20342 -75.48155 34909 ft 467 kts 115°
2026-05-05 14:11 41.17715 -75.40336 34915 ft 466 kts 115°
2026-05-05 14:11 41.15070 -75.32489 34919 ft 466 kts 116°
2026-05-05 14:12 41.12427 -75.24660 34921 ft 464 kts 116°
2026-05-05 14:12 41.09787 -75.16855 34902 ft 463 kts 116°
2026-05-05 14:13 41.07144 -75.09076 34915 ft 464 kts 115°
2026-05-05 14:13 41.04506 -75.01323 34914 ft 464 kts 116°
2026-05-05 14:14 41.01878 -74.93545 34932 ft 464 kts 114°
2026-05-05 14:14 40.99758 -74.85522 34929 ft 465 kts 107°
2026-05-05 14:15 40.98404 -74.77175 34929 ft 465 kts 99°
2026-05-05 14:15 40.97433 -74.68734 34934 ft 465 kts 99°
2026-05-05 14:16 40.96462 -74.60311 34942 ft 464 kts 99°
2026-05-05 14:16 40.95468 -74.51859 34940 ft 464 kts 99°
2026-05-05 14:17 40.94474 -74.43499 34943 ft 463 kts 99°
2026-05-05 14:17 40.93467 -74.35094 34941 ft 463 kts 99°
2026-05-05 14:18 40.92451 -74.26659 34942 ft 463 kts 101°
2026-05-05 14:18 40.91430 -74.18256 34937 ft 462 kts 101°
2026-05-05 14:19 40.89689 -74.10155 34935 ft 458 kts 119°
2026-05-05 14:19 40.86360 -74.03071 35029 ft 456 kts 126°
2026-05-05 14:20 40.82863 -73.96077 34953 ft 456 kts 125°
2026-05-05 14:20 40.79413 -73.89074 34945 ft 456 kts 125°
2026-05-05 14:21 40.75945 -73.82067 34945 ft 455 kts 126°
2026-05-05 14:21 40.72455 -73.75104 34945 ft 454 kts 125°
2026-05-05 14:22 40.68987 -73.68198 34953 ft 454 kts 125°
2026-05-05 14:22 40.65501 -73.61264 34954 ft 454 kts 125°
2026-05-05 14:23 40.62017 -73.54345 34959 ft 454 kts 125°
2026-05-05 14:23 40.58530 -73.47434 34964 ft 454 kts 125°
2026-05-05 14:24 40.55021 -73.40494 34961 ft 454 kts 125°
2026-05-05 14:24 40.51518 -73.33584 34961 ft 454 kts 126°
2026-05-05 14:25 40.48009 -73.26681 34968 ft 454 kts 126°
2026-05-05 14:25 40.44523 -73.19833 34970 ft 454 kts 126°
2026-05-05 14:26 40.40993 -73.12915 34972 ft 453 kts 126°
2026-05-05 14:26 40.37483 -73.06051 34979 ft 453 kts 126°
2026-05-05 14:27 40.34025 -72.99214 34984 ft 454 kts 121°
2026-05-05 14:27 40.32725 -72.95462 34592 ft 458 kts 109°
2026-05-05 14:27 40.32050 -72.91389 33980 ft 458 kts 97°
2026-05-05 14:28 40.32061 -72.87240 33402 ft 457 kts 85°
2026-05-05 14:28 40.32229 -72.83103 32811 ft 453 kts 94°
2026-05-05 14:28 40.31750 -72.79095 32233 ft 449 kts 108°
2026-05-05 14:28 40.30591 -72.75362 31652 ft 442 kts 122°
2026-05-05 14:29 40.28826 -72.72138 31069 ft 434 kts 135°
2026-05-05 14:29 40.26570 -72.69612 30475 ft 427 kts 149°
2026-05-05 14:29 40.23953 -72.67902 29725 ft 413 kts 164°
2026-05-05 14:29 40.21189 -72.67177 28979 ft 401 kts 180°
2026-05-05 14:30 40.18470 -72.67474 28241 ft 393 kts 196°
2026-05-05 14:30 40.15966 -72.68759 27499 ft 385 kts 212°
2026-05-05 14:30 40.13909 -72.70921 26759 ft 379 kts 230°
2026-05-05 14:30 40.12490 -72.73749 26021 ft 373 kts 247°
2026-05-05 14:31 40.11827 -72.76987 25285 ft 368 kts 262°
2026-05-05 14:31 40.11625 -72.80286 24558 ft 364 kts 266°
2026-05-05 14:31 40.11516 -72.83553 23839 ft 359 kts 267°
2026-05-05 14:31 40.11420 -72.86751 23132 ft 353 kts 267°
2026-05-05 14:32 40.11324 -72.89930 22423 ft 349 kts 267°
2026-05-05 14:32 40.11225 -72.93063 21715 ft 344 kts 267°
2026-05-05 14:32 40.11124 -72.96143 21004 ft 339 kts 267°
2026-05-05 14:32 40.11118 -72.99177 20309 ft 335 kts 277°
2026-05-05 14:33 40.11813 -73.02076 19586 ft 338 kts 292°
2026-05-05 14:33 40.12876 -73.04813 18884 ft 341 kts 295°
2026-05-05 14:33 40.14021 -73.07557 18183 ft 345 kts 296°
2026-05-05 14:33 40.15191 -73.10317 17476 ft 348 kts 296°
2026-05-05 14:34 40.16351 -73.13023 16784 ft 338 kts 296°
2026-05-05 14:34 40.17664 -73.15494 16154 ft 329 kts 309°
2026-05-05 14:34 40.19309 -73.17532 15818 ft 323 kts 313°
2026-05-05 14:34 40.20967 -73.19468 15471 ft 320 kts 313°
2026-05-05 14:35 40.22611 -73.21410 15145 ft 318 kts 313°
2026-05-05 14:35 40.24232 -73.23360 14809 ft 316 kts 312°
2026-05-05 14:35 40.25836 -73.25314 14529 ft 314 kts 311°
2026-05-05 14:35 40.27420 -73.27263 14293 ft 313 kts 311°
2026-05-05 14:36 40.29010 -73.29230 14034 ft 312 kts 311°
2026-05-05 14:36 40.30572 -73.31168 13790 ft 311 kts 311°
2026-05-05 14:36 40.32132 -73.33106 13535 ft 310 kts 311°
2026-05-05 14:36 40.33688 -73.35044 13273 ft 309 kts 311°
2026-05-05 14:37 40.35250 -73.36990 12994 ft 309 kts 311°
2026-05-05 14:37 40.36801 -73.38925 12741 ft 308 kts 311°
2026-05-05 14:37 40.38358 -73.40871 12520 ft 308 kts 311°
2026-05-05 14:37 40.39909 -73.42808 12255 ft 307 kts 311°
2026-05-05 14:38 40.41457 -73.44744 11980 ft 306 kts 311°
2026-05-05 14:38 40.42984 -73.46655 11737 ft 305 kts 310°
2026-05-05 14:38 40.44535 -73.48599 11482 ft 305 kts 310°
2026-05-05 14:38 40.46061 -73.50513 11261 ft 304 kts 310°
2026-05-05 14:39 40.47579 -73.52419 10977 ft 304 kts 310°
2026-05-05 14:39 40.49113 -73.54343 10607 ft 302 kts 310°
2026-05-05 14:39 40.50639 -73.56258 10244 ft 299 kts 311°
2026-05-05 14:39 40.52355 -73.57805 10005 ft 303 kts 335°
2026-05-05 14:40 40.54434 -73.58054 9933 ft 305 kts
2026-05-05 14:40 40.56470 -73.56964 9561 ft 314 kts 33°
2026-05-05 14:40 40.58219 -73.55225 9207 ft 313 kts 36°
2026-05-05 14:40 40.59924 -73.53475 8855 ft 312 kts 36°
2026-05-05 14:41 40.61648 -73.51752 8510 ft 310 kts 35°
2026-05-05 14:41 40.63391 -73.50066 8171 ft 307 kts 32°
2026-05-05 14:41 40.65199 -73.48567 7834 ft 304 kts 27°
2026-05-05 14:41 40.67066 -73.47204 7493 ft 302 kts 26°
2026-05-05 14:42 40.68935 -73.45915 7156 ft 300 kts 23°
2026-05-05 14:42 40.70801 -73.44732 6830 ft 298 kts 22°
2026-05-05 14:42 40.72691 -73.43552 6502 ft 296 kts 22°
2026-05-05 14:42 40.74543 -73.42437 6156 ft 293 kts 15°
2026-05-05 14:43 40.76498 -73.42213 5970 ft 267 kts 339°
2026-05-05 14:43 40.78024 -73.43310 5692 ft 246 kts 306°
2026-05-05 14:43 40.78934 -73.45158 5374 ft 236 kts 292°
2026-05-05 14:43 40.79694 -73.47038 5057 ft 228 kts 293°
2026-05-05 14:44 40.80447 -73.48812 4756 ft 218 kts 294°
2026-05-05 14:44 40.81193 -73.50498 4469 ft 208 kts 295°
2026-05-05 14:44 40.81910 -73.52132 4183 ft 196 kts 288°
2026-05-05 14:44 40.82177 -73.53783 3910 ft 181 kts 263°
2026-05-05 14:45 40.81906 -73.55413 3782 ft 180 kts 249°
2026-05-05 14:45 40.81484 -73.56988 3630 ft 179 kts 249°
2026-05-05 14:45 40.81069 -73.58531 3470 ft 179 kts 249°
2026-05-05 14:45 40.80656 -73.60076 3312 ft 179 kts 249°
2026-05-05 14:46 40.80252 -73.61603 3234 ft 168 kts 250°
2026-05-05 14:46 40.79834 -73.63017 3031 ft 159 kts 240°
2026-05-05 14:46 40.79118 -73.64052 2912 ft 147 kts 220°
2026-05-05 14:46 40.78262 -73.64777 2932 ft 143 kts 215°
2026-05-05 14:47 40.77399 -73.65440 2859 ft 143 kts 214°
2026-05-05 14:47 40.76550 -73.66088 2680 ft 142 kts 214°
2026-05-05 14:47 40.75700 -73.66743 2492 ft 141 kts 214°
2026-05-05 14:47 40.74851 -73.67405 2308 ft 140 kts 214°
2026-05-05 14:48 40.74014 -73.68058 2131 ft 140 kts 214°
2026-05-05 14:48 40.73170 -73.68719 1961 ft 140 kts 213°
2026-05-05 14:48 40.72337 -73.69372 1768 ft 139 kts 213°
2026-05-05 14:48 40.71503 -73.70024 1582 ft 139 kts 213°
2026-05-05 14:49 40.70667 -73.70679 1393 ft 139 kts 212°
2026-05-05 14:49 40.69847 -73.71321 1212 ft 138 kts 212°
2026-05-05 14:49 40.69016 -73.71972 1041 ft 139 kts 212°
2026-05-05 14:49 40.68188 -73.72620 854 ft 138 kts 211°
2026-05-05 14:50 40.67371 -73.73261 674 ft 137 kts 211°
2026-05-05 14:50 40.66554 -73.73898 497 ft 137 kts 211°
2026-05-05 14:50 40.65727 -73.74546 315 ft 136 kts 210°
2026-05-05 14:50 40.64928 -73.75172 132 ft 131 kts 210°
2026-05-05 14:51 40.64176 -73.75764 17 ft 118 kts 210°
2026-05-05 14:51 40.63593 -73.76205 16 ft 71 kts 210°
2026-05-05 14:51 40.63238 -73.76487 14 ft 40 kts 212°
2026-05-05 14:51 40.63045 -73.76675 12 ft 29 kts 230°
2026-05-05 14:52 40.62961 -73.76822 12 ft 17 kts 240°
2026-05-05 14:52 40.62930 -73.76974 12 ft 17 kts 289°
2026-05-05 14:52 40.62986 -73.77096 12 ft 11 kts 301°
2026-05-05 14:52 40.63022 -73.77174 12 ft 10 kts 300°
2026-05-05 14:53 40.63059 -73.77260 12 ft 11 kts 299°
2026-05-05 14:53 40.63099 -73.77352 12 ft 12 kts 298°
2026-05-05 14:53 40.63144 -73.77457 12 ft 13 kts 302°
2026-05-05 14:53 40.63194 -73.77563 12 ft 14 kts 301°
2026-05-05 14:54 40.63247 -73.77676 12 ft 14 kts 301°
2026-05-05 14:54 40.63302 -73.77793 12 ft 15 kts 301°
2026-05-05 14:54 40.63359 -73.77919 12 ft 16 kts 300°
2026-05-05 14:54 40.63415 -73.78050 12 ft 16 kts 298°
2026-05-05 14:55 40.63468 -73.78172 12 ft 15 kts 301°
2026-05-05 14:55 40.63515 -73.78268 13 ft 5 kts 315°
2026-05-05 14:55 40.63548 -73.78275 13 ft 5 kts 33°
2026-05-05 14:55 40.63585 -73.78252 14 ft 5 kts 11°
2026-05-05 14:56 40.63625 -73.78256 15 ft 6 kts 353°
2026-05-05 14:56 40.63673 -73.78264 16 ft 8 kts 353°
2026-05-05 14:56 40.63735 -73.78274 16 ft 9 kts 353°
2026-05-05 14:56 40.63807 -73.78285 16 ft 11 kts 353°
2026-05-05 14:57 40.63887 -73.78298 16 ft 12 kts 349°
2026-05-05 14:57 40.63967 -73.78350 16 ft 13 kts 330°
2026-05-05 14:57 40.64047 -73.78403 16 ft 9 kts 353°
2026-05-05 14:57 40.64080 -73.78371 16 ft 6 kts 64°
2026-05-05 14:58 40.64095 -73.78333 16 ft 3 kts 60°
2026-05-05 14:58 40.64101 -73.78318 16 ft 1 kts 60°
2026-05-05 14:58 40.64103 -73.78313 16 ft 0 kts 60°